Regional Weather Roundup
Issued by NWS Kansas City/Pleasant Hill, MO

Home | Current Version | Previous Version | Text Only | Print | Product List | Glossary On
Versions: 1 2 3 4 5 6 7 8 9 10 11 12 13 14 15 16 17 18 19 20 21 22 23 24 25 26 27 28 29 30 31 32 33 34 35 36 37 38 39 40 41 42 43 44 45 46 47 48 49 50
000
ASUS43 KEAX 272004
RWREAX

WEATHER ROUNDUP FOR EASTERN KANSAS AND NORTHWEST MISSOURI
NATIONAL WEATHER SERVICE KANSAS CITY/PLEASANT HILL MO
200 PM CST SAT DEC 27 2014

KSZ040-057-103>105-MOZ028-029-037-043-272100-
...KANSAS CITY METROPOLITAN AREA...

CITY           SKY/WX    TMP DP  RH WIND       PRES   REMARKS
K.C. INTL      PTSUNNY   30  22  72 NW10      30.21F WCI  21
K.C. DOWNTOWN  CLOUDY    32  22  66 W12       30.23S WCI  23
LEES SUMMIT    CLOUDY    32  23  69 W8        30.21F WCI  25
OLATHE - IXD   CLOUDY    31  22  69 NW12      30.23S WCI  22
OLATHE - OJC   PTSUNNY   31  21  66 NW9       30.21S WCI  23
LAWRENCE       PTSUNNY   33  20  58 NW9       30.24F WCI  25

$$

MOZ001>008-011>017-020>025-030>033-038>040-044>046-053-054-272100-
...NORTHERN AND CENTRAL MISSOURI...

CITY           SKY/WX    TMP DP  RH WIND       PRES   REMARKS
ST. JOSEPH     CLOUDY    29  20  69 NW14      30.24F WCI  18
MOSBY          CLOUDY    32  23  69 NW10G17   30.22F WCI  24
WARRENSBURG    CLOUDY    34  27  75 W8        30.21R WCI  27
WHITEMAN AFB   NOT AVBL
CLINTON        CLOUDY    34  32  93 W9        30.22R WCI  26
SEDALIA        CLOUDY    35  28  75 NW12      30.20S WCI  27
WARSAW         NOT AVBL
MARSHALL       CLOUDY    36  30  80 NW12G17   30.19S WCI  27
CHILLICOTHE      N/A     33  24  69 NW9       30.21F WCI  25
MOBERLY        CLOUDY    34  27  75 W12       30.17  WCI  25
KIRKSVILLE     CLOUDY    32  25  75 NW10      30.16F WCI  24

$$

MOZ041-047>049-056>058-063>065-088>090-097-272100-
...EASTERN AND SOUTHERN MISSOURI...

CITY           SKY/WX    TMP DP  RH WIND       PRES   REMARKS
ST. LOUIS INTL LGT RAIN  41  35  79 NW9       30.14F
SPIRIT OF STL  CLOUDY    40  36  86 N5        30.12F
COLUMBIA       CLOUDY    35  32  88 NW9       30.16F WCI  28
JEFFERSON CITY LGT SNOW  35  32  88 NW12      30.19R FOG     WCI  27
HANNIBAL       CLOUDY    37  30  75 W9        30.14F WCI  31
ROLLA          LGT RAIN  34  32  92 W10       30.15R FOG     WCI  26
LEBANON        CLOUDY    34  32  93 NW6       30.15F WCI  29
OSAGE BEACH    CLOUDY    36  30  80 W6        30.18S WCI  31
SPRINGFIELD    CLOUDY    34  31  88 NW9       30.17F WCI  27
BRANSON        CLOUDY    36  32  87 N6        30.16F WCI  31
NEVADA         CLOUDY    32  27  80 NW9       30.24R WCI  24
JOPLIN         LGT SNOW  30  29  96 NW8       30.22F FOG     WCI  22
WEST PLAINS    LGT RAIN  39  35  86 NW6       30.13F WCI  35

$$

IAZ060-094-KSZ022-034>040-054-083-096-NEZ052-066-093-272100-
...KANSAS...SOUTHEAST NEBRASKA AND IOWA...

CITY           SKY/WX    TMP DP  RH WIND       PRES   REMARKS
TOPEKA         MOSUNNY   36  19  50 NW9       30.24F WCI  29
MANHATTAN      MOSUNNY   32  17  54 NW8G20    30.26F WCI  25
EMPORIA        SUNNY     33  16  49 NW15G24   30.23F WCI  23
CHANUTE        PTSUNNY   34  21  59 NW14      30.24F WCI  25
WICHITA        PTSUNNY   34  16  47 NW14      30.27S WCI  25
OMAHA          MOSUNNY   27  18  69 NW12      30.24S WCI  17
LINCOLN        SUNNY     27  17  66 NW12      30.25F WCI  17
FALLS CITY     MOSUNNY   29  19  66 NW14      30.23F WCI  18
LAMONI         CLOUDY    28  21  75 NW15      30.18R WCI  16
DES MOINES     CLOUDY    30  21  69 NW13      30.18R WCI  20

$$



USA.gov is the U.S. government's official web portal to all federal, state and local government web resources and services.